Location: Chiroubles
(46.1812°N, 4.6660°E)
Time: 11:42:04
(UTC+00:00)

N. Korean satellite - Pass Details

Date: 31 October 2020
Orbit: 453 x 503 km, 97.2° (Epoch: 03 December)

Event Time Altitude Azimuth Distance (km) Brightness Sun altitude
Rises 05:12:07 0° 14° (NNE) 2,479 10.2 -12.4°
Reaches altitude 10° 05:14:10 10° 16° (NNE) 1,599 9.3 -12.1°
Maximum altitude 05:17:35 74° 101° (E) 477 6.6 -11.5°
Drops below altitude 10° 05:20:59 10° 188° (S) 1,590 9.2 -10.9°
Sets 05:23:01 0° 190° (S) 2,462 10.2 -10.6°
